Flag for U.S.A. Weather past 2 weeks in Daly City, California, U.S.A.

Now
49 °F

Passing clouds.


Feels Like: 49 °F
Forecast: 48 / 65 °F
Wind: No wind

Location: San Francisco International Airport

Current Time: Mar 5, 2015 at 6:56:45 AM

Latest Report: Mar 5, 2015 at 5:56 AM


Visibility: 10 mi

Pressure: 30.27 "Hg

Humidity: 84%

Dew point: 44 °F

Location of Daly CityLocation

Historic Weather in Daly City — Graph

°F

Daly City temperature yesterday

Maximum temperature yesterday: 65 °F (at 2:56 PM)
Minimum temperature yesterday: 46 °F (at 4:56 AM)
Average temperature yesterday: 56 °F

Past Weeks' High & Low Weather Summary

 TemperatureHumidityPressure
High67 °F (Feb 20, 2:56 PM)100% (Feb 18, 7:56 PM)30.36 "Hg (Feb 18, 7:56 PM)
Low46 °F (Feb 24, 5:56 AM)30% (Feb 23, 8:56 AM)29.72 "Hg (Feb 28, 3:56 AM)
Average56 °F75%30.02 "Hg
* Reported Feb 18 5:56 AM — Mar 5 5:56 AM, Daly City, Weather by CustomWeather, © 2015

Note: Actual official high and low records may vary slightly from our data, if they occured in-between our weather recording intervals... More about our weather records

Advertising

Daly City weather history for previous 24 hours

 ConditionsComfort  
Time TempWeatherWind HumidityBarometerVisibility
5:56 AM
Thu, Mar 5
49 °FPassing clouds.No wind84%30.27 "Hg10 mi
4:56 AM49 °FClear.No wind77%30.26 "Hg10 mi
3:56 AM49 °FClear.No wind69%30.24 "Hg10 mi
2:56 AM50 °FClear.No wind74%30.23 "Hg10 mi
1:56 AM52 °FClear.No wind61%30.24 "Hg10 mi
12:56 AM53 °FClear.3 mph64%30.23 "Hg10 mi
11:56 PM
Wed, Mar 4
53 °FClear.No wind61%30.23 "Hg10 mi
10:56 PM56 °FClear.No wind55%30.22 "Hg10 mi
9:56 PM56 °FClear.No wind55%30.21 "Hg10 mi
8:56 PM57 °FClear.6 mph53%30.19 "Hg10 mi
7:56 PM58 °FClear.9 mph47%30.17 "Hg10 mi
6:56 PM60 °FClear.10 mph49%30.16 "Hg10 mi
5:56 PM62 °FPassing clouds.12 mph43%30.15 "Hg10 mi
4:56 PM65 °FPassing clouds.12 mph52%30.14 "Hg10 mi
3:56 PM65 °FPassing clouds.6 mph49%30.14 "Hg10 mi
2:56 PM65 °FPassing clouds.6 mph52%30.13 "Hg10 mi
1:56 PM64 °FPassing clouds.3 mph50%30.13 "Hg10 mi
12:56 PM62 °FPassing clouds.6 mph60%30.14 "Hg10 mi
11:56 AM60 °FPassing clouds.6 mph65%30.16 "Hg10 mi
10:56 AM58 °FPassing clouds.5 mph72%30.15 "Hg10 mi
9:56 AM56 °FPassing clouds.5 mph75%30.14 "Hg10 mi
8:56 AM54 °FPassing clouds.3 mph80%30.14 "Hg10 mi
7:56 AM52 °FSunny.No wind80%30.12 "Hg10 mi
6:56 AM47 °FPassing clouds.3 mph86%30.08 "Hg10 mi
Weather by CustomWeather, © 2015

See weather overviewHow to use our weather pages